Wind_Speed
5 5 5 4 3 2 3 5 7 8 8 7 6 5 4 4 5 7 8 9 10 10 11 12 12 12 12 11 10 9 8 6 4 2 1 1 2 3 3 4 5 6 8 10 11 12 12 10 8
8 8 7 7 6 4 3 4 5 7 9 9 9 8 6 7 7 7 8 8 9 10 12 13 13 13 12 12 11 10 10 8 6 4 3 3 4 5 5 6 7 7 8 9 10 10 10 10 8
10 10 9 9 8 7 6 6 7 7 8 9 10 10 9 9 9 9 10 10 10 12 13 15 15 14 13 12 12 11 10 9 8 7 6 7 7 7 8 8 8 9 9 9 9 9 9 9 8
12 12 12 12 11 10 9 10 9 9 8 8 9 10 10 10 10 10 11 12 12 13 14 15 15 14 13 12 12 12 12 11 10 10 10 10 10 10 11 11 11 11 12 11 11 10 10 9 8
15 15 15 15 15 14 13 13 11 9 8 7 7 9 9 9 9 10 11 12 13 14 14 14 14 13 12 12 13 13 14 14 14 14 14 14 14 14 14 15 15 15 15 15 14 13 13 11 10
17 17 17 18 19 17 17 16 14 13 10 9 8 8 7 8 8 9 11 12 12 13 14 14 14 14 14 14 14 15 16 16 17 17 18 18 18 18 18 18 18 19 19 19 18 17 17 16 14
19 19 19 19 21 21 21 20 18 16 12 9 8 8 8 8 8 9 10 12 13 14 15 16 16 17 17 18 18 18 19 19 19 20 20 20 21 21 21 21 22 22 22 22 22 21 21 20 19
21 21 21 22 23 23 24 23 21 18 14 12 11 10 10 8 8 10 11 12 14 15 17 18 20 21 22 22 22 22 22 22 22 22 22 22 22 22 23 23 24 24 24 25 25 24 24 24 23
22 22 23 25 25 24 25 25 23 22 18 16 14 12 11 11 11 12 13 14 16 19 21 22 24 25 26 26 27 28 27 27 25 24 23 23 23 23 23 24 24 25 26 26 26 26 26 26 25
22 23 25 28 28 27 26 26 26 24 23 20 17 16 15 15 15 16 17 18 20 22 23 25 27 28 30 31 32 33 33 32 29 28 26 24 23 23 23 24 24 25 25 25 26 27 27 26 26
21 21 24 28 30 29 28 28 29 27 25 23 21 21 21 20 20 21 22 23 24 25 26 28 29 31 32 33 35 35 35 36 34 33 30 28 25 24 23 24 24 24 24 24 25 26 26 26 26
21 20 23 26 30 31 31 31 32 30 28 27 26 26 26 26 26 26 26 27 28 29 29 30 31 32 34 36 36 37 38 38 37 36 34 31 27 25 24 24 24 24 24 24 24 25 24 25 25
21 19 20 23 28 31 33 34 35 34 33 32 30 30 31 31 30 30 30 29 29 30 31 32 34 34 36 36 37 39 39 39 39 39 38 34 30 27 26 25 24 24 24 24 25 24 24 24 24
21 19 19 22 26 30 33 34 35 34 35 34 34 34 34 33 32 30 29 29 30 31 32 34 35 36 38 39 40 39 40 41 42 39 39 36 33 30 28 26 25 25 25 25 26 25 24 24 25
20 20 21 24 26 28 31 32 33 34 35 35 35 35 35 34 32 30 30 30 32 33 34 38 38 39 40 40 41 41 40 39 38 38 40 37 35 32 29 26 25 24 25 25 25 26 26 26 25
20 21 23 24 26 27 27 28 29 30 31 33 33 33 32 31 31 30 31 33 36 37 40 42 41 40 39 40 41 40 39 35 33 37 38 36 35 32 29 26 24 24 25 26 26 26 26 26 26
20 21 22 23 25 25 25 24 23 23 25 27 28 29 30 30 31 32 34 36 39 41 43 43 41 39 39 40 40 38 36 31 29 32 35 35 34 30 27 26 25 25 25 25 26 26 26 26 26
18 19 21 22 23 23 22 20 18 18 21 23 25 27 30 32 34 35 37 39 41 43 43 42 39 37 37 37 37 37 32 26 22 24 28 29 30 28 27 26 25 24 24 25 25 25 25 25 25
17 18 20 21 22 22 21 18 17 18 21 24 27 29 32 34 36 38 40 42 43 43 41 39 38 36 36 36 36 34 29 23 17 18 22 25 27 28 27 27 26 25 25 24 24 24 24 24 24
15 16 18 20 20 21 21 20 20 21 23 26 29 32 35 37 39 41 43 43 42 42 41 39 38 36 36 37 36 34 29 24 21 19 19 21 25 27 27 27 26 26 26 25 24 23 23 23 23
13 14 15 16 17 18 20 20 22 25 28 30 32 35 37 39 41 42 41 41 41 40 40 40 39 39 38 38 36 34 32 29 24 21 21 22 24 27 28 29 29 28 27 27 25 25 24 24 24
9 10 10 12 13 14 15 16 19 22 25 28 29 31 32 32 34 34 35 36 38 39 40 41 41 41 40 39 38 36 34 31 29 27 27 27 27 29 31 32 31 30 29 29 28 27 27 27 26
6 6 7 7 8 10 11 14 15 19 21 23 25 27 28 30 31 31 33 35 36 39 41 42 43 43 43 42 41 40 38 36 34 33 33 32 31 31 33 33 33 32 31 31 31 31 31 31 30
6 6 6 6 6 8 11 13 16 18 21 23 25 27 29 31 32 33 35 36 38 40 41 43 43 44 44 45 44 43 43 42 41 40 38 38 38 37 37 37 36 35 35 34 34 34 34 34 34
7 7 7 7 8 10 13 15 17 19 22 25 27 29 31 32 33 34 36 37 39 40 42 43 44 44 45 46 46 47 47 47 47 46 46 45 45 44 44 43 42 41 40 39 38 38 37 38 38
9 10 11 12 12 14 16 18 20 22 24 27 29 31 33 34 35 36 37 38 39 40 41 43 44 44 45 46 47 48 49 50 51 52 52 52 51 51 51 50 49 48 46 45 44 43 42 42 42
11 12 14 16 17 19 19 21 22 24 27 30 32 34 35 37 38 40 41 42 42 43 43 43 43 43 43 43 44 46 49 51 53 55 56 56 57 57 57 57 56 55 53 52 50 49 47 46 46
12 14 16 17 19 21 22 22 24 26 30 33 36 37 39 41 43 44 45 46 47 47 46 44 42 40 40 41 42 43 45 47 50 54 58 60 61 62 62 63 62 61 60 58 57 55 53 52 51
14 15 17 18 19 21 23 25 27 31 34 36 38 40 43 45 46 48 49 50 50 49 48 47 46 47 48 48 48 48 48 47 47 48 51 56 61 64 66 67 67 67 67 65 63 62 60 59 56
14 16 17 19 20 22 25 27 31 34 36 38 40 43 45 48 50 50 51 51 50 49 48 49 51 52 53 54 54 54 53 51 50 48 48 50 53 58 64 68 70 72 72 71 70 68 66 65 63
Wind_Direction
221 226 230 251 276 285 328 343 344 342 344 347 347 349 354 344 329 313 300 294 286 286 289 290 287 285 286 289 292 298 303 310 318 327 338 342 335 330 332 336 341 346 351 356 0 6 13 19 20
229 235 241 252 271 292 318 325 324 328 329 328 326 325 330 329 321 317 314 309 303 303 303 299 292 289 289 290 292 295 299 303 305 304 297 292 291 292 297 305 314 323 332 342 349 356 4 12 17
233 241 246 254 265 285 297 301 302 306 312 315 316 319 326 325 318 316 312 311 312 312 308 300 294 291 291 292 294 295 297 298 297 296 293 288 284 283 284 287 293 300 307 317 327 335 344 354 4
238 244 253 259 264 273 286 292 298 294 299 304 309 316 322 324 322 322 318 317 316 314 309 303 298 296 296 297 297 298 298 297 295 292 289 286 283 281 279 278 278 282 288 294 303 310 316 323 332
241 246 253 260 265 271 277 280 286 286 297 298 315 326 326 325 327 327 325 322 317 313 310 306 304 303 302 302 301 300 298 295 293 291 289 286 283 280 277 275 274 274 277 281 287 292 295 299 304
242 246 252 261 268 274 274 277 282 288 300 309 310 320 329 325 322 323 322 318 312 309 307 306 306 304 302 301 299 298 296 294 292 291 289 286 283 280 278 276 274 274 275 277 280 283 285 287 289
244 245 248 257 265 273 277 282 284 289 301 310 315 315 316 314 313 311 309 306 300 299 303 305 304 303 301 299 296 294 292 291 289 287 285 283 281 279 277 275 274 274 273 274 277 279 280 282 283
251 245 244 249 259 269 277 282 286 291 300 309 313 308 308 306 303 301 299 293 289 292 296 300 301 299 297 295 293 290 287 285 283 282 281 280 278 276 275 274 273 272 272 272 273 275 276 277 279
254 247 242 243 252 264 274 281 288 293 299 307 309 305 300 298 296 295 295 289 285 287 292 295 296 296 295 294 292 289 285 282 279 277 275 275 274 272 272 272 272 272 271 271 271 272 273 274 276
258 251 243 244 250 257 266 276 284 291 296 299 299 297 294 295 294 294 293 289 286 288 292 295 295 295 294 293 292 288 284 280 276 273 270 268 268 268 269 270 270 271 271 270 270 270 270 271 273
262 257 250 245 250 255 260 269 278 284 288 290 289 289 289 291 292 292 291 290 291 292 292 293 293 293 291 291 290 286 285 279 274 271 267 264 263 263 264 266 268 269 269 270 270 270 270 268 270
262 259 254 247 250 253 256 262 267 273 277 278 280 282 284 287 289 290 291 291 290 292 291 291 289 291 292 292 289 287 285 278 270 267 263 260 259 258 259 262 265 267 268 269 270 269 269 269 269
260 259 258 253 249 252 254 257 262 265 270 273 275 278 281 283 285 288 290 290 290 290 290 289 289 292 294 294 293 293 287 278 272 267 259 256 255 254 256 259 262 264 267 268 269 269 270 270 269
264 262 260 256 252 252 254 256 260 264 268 271 273 274 277 280 283 285 288 289 290 289 291 293 295 297 303 306 305 299 291 286 272 264 254 251 252 252 253 256 258 260 263 266 266 266 267 266 266
267 264 260 257 258 259 261 263 264 266 267 268 270 273 276 279 283 286 289 290 290 292 296 300 304 307 309 312 309 306 299 288 270 257 248 245 247 249 249 252 255 258 261 263 263 264 264 264 265
268 264 263 263 263 265 266 268 270 269 267 266 267 270 275 280 285 288 291 294 296 299 303 306 307 309 311 312 311 310 303 291 270 253 243 240 243 246 248 249 254 257 259 260 261 262 262 262 262
270 265 263 262 264 265 268 270 272 270 264 262 265 269 274 280 285 289 292 295 299 303 306 308 311 314 314 313 313 312 306 291 268 249 244 240 240 245 249 252 255 257 258 258 258 259 259 259 259
268 265 264 262 262 264 266 270 270 266 261 263 268 274 279 283 286 290 293 298 300 303 305 307 310 312 313 314 315 315 312 296 271 249 241 239 238 245 251 254 256 257 257 256 256 256 255 254 253
268 267 267 266 265 263 263 267 270 269 267 269 274 279 282 284 287 290 293 295 297 300 302 304 305 307 310 314 317 318 316 305 280 260 250 244 244 247 250 256 258 258 256 254 253 252 251 249 247
273 274 275 274 274 272 270 269 270 271 273 276 279 281 282 283 285 288 290 292 294 295 298 299 301 303 306 310 314 316 316 311 295 278 266 261 253 251 253 257 259 259 256 254 251 247 245 245 243
277 283 287 288 288 284 282 279 276 275 277 280 282 285 285 286 287 287 287 290 292 294 296 298 300 301 304 306 308 310 309 305 300 288 280 271 266 263 260 259 259 259 257 254 250 244 240 239 238
284 296 300 297 296 295 293 290 286 286 287 287 289 290 290 292 291 288 288 290 292 294 296 297 298 299 300 301 301 301 299 297 292 285 280 275 269 264 261 259 258 257 256 253 248 243 238 236 235
304 313 317 314 306 302 301 298 292 289 290 291 294 296 296 299 299 296 294 295 296 296 297 298 297 297 297 296 295 294 291 288 284 280 275 271 267 263 260 257 255 254 254 252 248 244 239 236 235
320 336 337 328 315 301 301 295 292 291 294 296 298 301 303 304 305 304 302 301 301 300 299 298 297 295 294 293 291 288 285 282 278 275 270 267 263 261 258 256 254 252 251 250 247 245 241 238 237
317 325 323 311 296 293 297 296 295 298 300 302 304 306 307 306 306 305 303 302 301 299 298 297 296 294 292 290 288 285 282 279 275 271 267 263 260 257 255 253 252 250 249 248 246 245 243 241 239
310 312 313 309 303 301 303 303 304 305 305 306 308 310 310 310 309 307 306 305 303 301 299 297 296 293 291 288 286 283 280 277 273 269 265 261 257 254 252 251 249 248 247 245 245 244 243 242 241
312 312 313 310 309 308 308 306 306 308 309 312 314 315 315 314 313 312 311 309 307 306 304 303 301 300 297 294 290 285 281 277 273 269 265 261 257 253 250 248 247 246 244 243 243 243 242 242 242
314 314 315 316 313 312 312 312 314 313 315 317 318 318 318 317 317 316 316 315 314 314 314 313 312 311 309 306 302 297 291 284 277 271 266 262 258 255 251 248 246 244 243 241 241 240 240 240 241
315 314 315 316 316 316 318 320 319 319 320 321 321 321 321 321 321 320 320 320 319 319 319 319 318 317 315 312 309 306 301 295 288 280 272 265 260 255 252 249 246 244 242 240 239 238 238 238 239
319 319 318 319 320 321 322 323 323 322 323 323 323 324 324 324 323 323 322 321 320 319 319 319 318 317 316 314 311 309 305 300 294 287 278 270 264 257 252 248 246 244 242 240 238 237 236 236 237
Height
5914 5914 5914 5914 5914 5913 5912 5911 5910 5910 5909 5909 5909 5908 5908 5908 5908 5910 5908 5906 5906 5906 5905 5905 5904 5904 5903 5901 5900 5899 5898 5897 5897 5897 5897 5897 5897 5896 5896 5896 5896 5895 5894 5894 5893 5892 5891 5890 5889
5914 5914 5915 5915 5914 5914 5913 5912 5912 5911 5910 5909 5909 5908 5908 5907 5907 5907 5906 5905 5905 5905 5904 5904 5903 5902 5901 5900 5899 5898 5897 5896 5896 5896 5896 5896 5896 5896 5896 5895 5895 5894 5894 5893 5893 5892 5891 5891 5890
5914 5914 5915 5914 5913 5913 5913 5913 5912 5911 5910 5910 5909 5908 5908 5907 5907 5906 5906 5905 5904 5904 5903 5903 5902 5901 5900 5899 5898 5897 5896 5895 5895 5895 5895 5895 5895 5895 5894 5894 5894 5893 5893 5892 5892 5892 5891 5891 5890
5914 5914 5914 5914 5913 5913 5912 5912 5911 5911 5910 5909 5909 5908 5907 5907 5907 5906 5905 5905 5904 5903 5903 5902 5900 5899 5898 5897 5897 5896 5895 5895 5894 5894 5893 5893 5893 5893 5893 5892 5892 5891 5891 5891 5891 5891 5890 5890 5890
5913 5913 5913 5911 5911 5911 5911 5910 5910 5910 5909 5908 5908 5907 5907 5907 5906 5905 5905 5904 5904 5903 5902 5901 5899 5898 5897 5896 5895 5895 5894 5893 5892 5892 5891 5891 5891 5890 5890 5889 5889 5888 5888 5888 5888 5888 5888 5888 5888
5911 5911 5911 5910 5908 5908 5908 5908 5908 5908 5907 5907 5907 5907 5907 5906 5905 5905 5904 5903 5903 5902 5901 5899 5898 5897 5896 5894 5894 5893 5892 5891 5890 5889 5889 5888 5887 5887 5886 5886 5885 5885 5884 5884 5884 5885 5885 5885 5885
5909 5909 5908 5907 5906 5905 5906 5905 5906 5906 5906 5906 5906 5906 5906 5905 5904 5904 5903 5902 5901 5900 5899 5898 5896 5895 5894 5892 5891 5890 5889 5888 5887 5886 5885 5884 5883 5883 5882 5881 5881 5881 5880 5880 5880 5880 5881 5881 5881
5905 5907 5905 5904 5903 5903 5903 5902 5903 5903 5904 5904 5904 5904 5904 5903 5903 5902 5901 5900 5899 5898 5896 5895 5894 5892 5891 5889 5888 5886 5885 5884 5883 5882 5881 5880 5879 5878 5877 5877 5876 5876 5876 5876 5876 5876 5876 5876 5876
5902 5904 5902 5901 5900 5901 5900 5900 5900 5901 5902 5902 5902 5902 5901 5901 5900 5899 5898 5897 5896 5895 5893 5892 5890 5889 5887 5885 5884 5882 5881 5879 5878 5876 5875 5875 5874 5873 5872 5872 5871 5871 5871 5871 5871 5871 5871 5871 5871
5899 5899 5899 5898 5898 5899 5898 5898 5898 5898 5899 5899 5899 5898 5898 5897 5896 5896 5895 5894 5893 5891 5890 5888 5886 5885 5883 5881 5879 5877 5875 5873 5872 5870 5869 5868 5868 5867 5867 5866 5866 5866 5865 5865 5866 5866 5865 5866 5866
5894 5896 5895 5895 5895 5896 5896 5896 5895 5895 5896 5895 5894 5893 5892 5892 5892 5891 5891 5890 5888 5887 5885 5883 5881 5879 5876 5874 5872 5870 5868 5866 5864 5863 5862 5861 5860 5860 5860 5861 5860 5860 5860 5860 5860 5860 5860 5860 5860
5890 5891 5891 5892 5892 5892 5892 5892 5891 5890 5890 5889 5888 5887 5887 5887 5887 5887 5886 5885 5884 5882 5879 5877 5874 5871 5868 5866 5863 5862 5860 5857 5855 5855 5854 5853 5853 5853 5854 5854 5854 5854 5854 5854 5854 5854 5854 5855 5855
5886 5887 5887 5888 5887 5886 5886 5885 5885 5885 5884 5884 5883 5883 5883 5882 5882 5882 5881 5880 5878 5875 5872 5870 5866 5863 5860 5857 5854 5852 5849 5848 5846 5845 5845 5845 5845 5845 5846 5847 5848 5849 5848 5848 5848 5848 5849 5850 5850
5882 5882 5882 5882 5880 5879 5879 5880 5880 5880 5880 5880 5879 5879 5878 5878 5877 5877 5876 5874 5872 5869 5866 5862 5859 5855 5851 5847 5845 5841 5838 5836 5834 5834 5835 5836 5837 5838 5839 5840 5841 5842 5842 5842 5842 5843 5843 5844 5845
5878 5878 5877 5876 5876 5876 5876 5875 5875 5875 5875 5875 5875 5874 5874 5873 5872 5871 5870 5868 5865 5862 5859 5855 5851 5847 5843 5839 5835 5831 5826 5822 5821 5821 5823 5826 5828 5830 5831 5832 5833 5834 5835 5836 5836 5837 5837 5838 5839
5873 5873 5873 5872 5872 5872 5873 5872 5871 5870 5871 5870 5870 5869 5869 5867 5866 5865 5863 5861 5858 5855 5851 5848 5844 5840 5836 5831 5825 5819 5815 5809 5808 5810 5813 5816 5820 5822 5823 5825 5826 5827 5829 5829 5830 5830 5831 5832 5832
5869 5869 5868 5868 5867 5868 5868 5867 5867 5866 5866 5865 5865 5865 5863 5862 5861 5859 5857 5854 5851 5848 5844 5841 5837 5833 5829 5824 5817 5811 5805 5800 5798 5800 5804 5809 5812 5815 5816 5818 5819 5821 5822 5822 5823 5824 5824 5825 5826
5865 5865 5864 5864 5864 5864 5863 5863 5863 5863 5862 5862 5862 5860 5859 5857 5855 5853 5850 5847 5844 5841 5838 5835 5831 5828 5823 5818 5811 5805 5799 5794 5793 5795 5799 5802 5805 5808 5809 5811 5812 5814 5815 5816 5816 5817 5818 5819 5820
5862 5862 5861 5861 5860 5860 5860 5860 5860 5860 5859 5858 5857 5856 5854 5852 5849 5847 5844 5841 5837 5835 5832 5829 5825 5822 5818 5813 5808 5802 5796 5792 5790 5791 5794 5797 5799 5801 5802 5804 5805 5806 5807 5808 5809 5811 5812 5813 5814
5860 5859 5858 5858 5857 5857 5856 5857 5857 5856 5855 5854 5852 5851 5848 5846 5843 5840 5837 5833 5830 5827 5824 5822 5818 5815 5811 5807 5803 5798 5795 5792 5789 5789 5790 5791 5793 5794 5796 5797 5798 5799 5800 5801 5802 5803 5805 5806 5808
5858 5857 5856 5855 5854 5853 5854 5854 5853 5852 5850 5849 5847 5844 5841 5838 5835 5831 5828 5825 5822 5819 5816 5813 5810 5807 5804 5801 5797 5794 5792 5790 5788 5788 5787 5787 5788 5788 5789 5790 5791 5792 5793 5794 5795 5796 5798 5800 5802
5856 5855 5854 5853 5852 5851 5851 5850 5849 5847 5845 5843 5840 5837 5834 5830 5826 5823 5820 5817 5814 5811 5808 5805 5802 5799 5796 5794 5791 5789 5787 5785 5784 5783 5783 5782 5782 5782 5782 5783 5783 5784 5785 5786 5788 5789 5791 5793 5795
5855 5854 5853 5852 5851 5850 5849 5848 5847 5843 5841 5838 5835 5831 5828 5825 5821 5817 5814 5810 5807 5804 5800 5797 5793 5790 5787 5784 5782 5780 5779 5777 5776 5776 5775 5774 5774 5774 5774 5774 5775 5776 5777 5778 5780 5781 5783 5786 5788
5854 5853 5852 5851 5850 5849 5848 5846 5843 5840 5837 5834 5830 5827 5823 5819 5815 5811 5807 5803 5799 5795 5791 5787 5783 5780 5776 5773 5770 5768 5767 5766 5765 5764 5764 5764 5764 5764 5764 5765 5765 5766 5767 5769 5770 5772 5775 5777 5780
5853 5852 5851 5850 5849 5848 5845 5843 5840 5836 5833 5829 5825 5822 5818 5813 5809 5804 5800 5795 5790 5786 5781 5776 5772 5768 5764 5760 5757 5755 5753 5751 5750 5750 5750 5750 5750 5751 5752 5753 5754 5755 5756 5758 5759 5762 5765 5767 5770
5850 5850 5849 5848 5846 5844 5842 5839 5836 5832 5828 5824 5820 5816 5811 5806 5801 5796 5791 5786 5780 5775 5770 5765 5760 5756 5752 5748 5744 5740 5737 5735 5734 5733 5733 5733 5734 5735 5736 5738 5739 5741 5744 5746 5748 5750 5753 5756 5760
5848 5846 5846 5844 5841 5839 5837 5835 5831 5827 5823 5818 5814 5809 5803 5798 5792 5786 5780 5774 5769 5763 5758 5753 5747 5743 5738 5733 5729 5725 5721 5718 5716 5714 5713 5713 5714 5716 5717 5719 5722 5725 5728 5731 5734 5737 5740 5744 5748
5846 5844 5842 5840 5837 5834 5833 5830 5827 5822 5817 5812 5806 5800 5794 5788 5781 5774 5767 5760 5753 5747 5741 5735 5731 5726 5722 5717 5713 5708 5704 5699 5696 5694 5692 5692 5693 5694 5696 5699 5702 5706 5710 5714 5718 5722 5726 5730 5734
5843 5841 5838 5836 5834 5831 5827 5827 5821 5815 5810 5804 5798 5791 5784 5777 5769 5761 5753 5745 5738 5730 5724 5718 5713 5708 5703 5698 5693 5688 5684 5679 5676 5673 5670 5668 5668 5670 5673 5676 5680 5684 5688 5694 5699 5704 5709 5714 5719
5840 5838 5835 5834 5831 5827 5824 5823 5814 5808 5802 5796 5790 5782 5774 5766 5758 5749 5741 5733 5726 5718 5712 5705 5698 5692 5686 5680 5674 5669 5663 5658 5654 5651 5648 5646 5645 5645 5647 5650 5655 5660 5665 5671 5677 5684 5690 5696 5702